Visibility
15.0 15.0 15.0 15.0 15.0 15.0 15.0 15.0 15.0 15.0 15.0 15.0 15.0 15.0 15.0 15.0 15.0 15.0 15.0 15.0 15.0 15.0 15.0 15.0 15.0 15.0 15.0 15.0 15.0 15.0 15.0 15.0 15.0 15.0 15.0 15.0 15.0 15.0 15.0 15.0 15.0 15.0 15.0 15.0 0.6
15.0 15.0 15.0 15.0 15.0 15.0 15.0 15.0 15.0 15.0 14.9 15.0 15.0 15.0 15.0 15.0 15.0 15.0 15.0 15.0 15.0 15.0 15.0 15.0 15.0 15.0 15.0 15.0 15.0 15.0 15.0 15.0 15.0 15.0 15.0 15.0 15.0 15.0 15.0 15.0 15.0 15.0 15.0 15.0 15.0
12.4 15.0 15.0 15.0 15.0 15.0 15.0 15.0 15.0 15.0 15.0 15.0 15.0 15.0 15.0 15.0 15.0 15.0 15.0 15.0 15.0 15.0 15.0 15.0 15.0 15.0 15.0 15.0 15.0 15.0 15.0 15.0 15.0 15.0 15.0 15.0 15.0 15.0 15.0 15.0 15.0 15.0 15.0 15.0 2.8
15.0 15.0 14.5 15.0 15.0 15.0 15.0 15.0 15.0 15.0 15.0 15.0 14.9 15.0 15.0 15.0 15.0 15.0 15.0 15.0 15.0 15.0 15.0 15.0 15.0 15.0 15.0 15.0 15.0 15.0 15.0 15.0 15.0 15.0 15.0 15.0 15.0 15.0 15.0 15.0 15.0 15.0 15.0 15.0 15.0
12.3 15.0 14.6 15.0 15.0 15.0 15.0 15.0 15.0 15.0 15.0 15.0 12.0 14.8 15.0 15.0 15.0 15.0 15.0 15.0 15.0 15.0 15.0 15.0 15.0 15.0 15.0 15.0 15.0 15.0 15.0 15.0 15.0 15.0 15.0 15.0 15.0 15.0 15.0 15.0 15.0 15.0 15.0 15.0 15.0
15.0 11.5 13.7 15.0 13.0 13.2 15.0 15.0 15.0 15.0 15.0 15.0 15.0 7.7 15.0 15.0 15.0 15.0 15.0 15.0 15.0 15.0 15.0 15.0 15.0 15.0 15.0 15.0 15.0 15.0 15.0 15.0 15.0 15.0 15.0 15.0 15.0 15.0 15.0 15.0 15.0 15.0 15.0 15.0 15.0
15.0 14.9 9.3 9.3 15.0 9.4 14.2 15.0 15.0 15.0 15.0 15.0 15.0 11.0 3.5 15.0 15.0 15.0 15.0 15.0 15.0 15.0 15.0 15.0 15.0 15.0 15.0 15.0 15.0 15.0 15.0 15.0 15.0 15.0 15.0 15.0 15.0 15.0 15.0 15.0 15.0 15.0 15.0 15.0 15.0
15.0 15.0 15.0 14.7 14.3 15.0 11.1 10.4 14.5 15.0 15.0 15.0 15.0 14.8 6.0 15.0 15.0 15.0 15.0 15.0 15.0 15.0 15.0 15.0 15.0 15.0 15.0 15.0 15.0 15.0 15.0 15.0 15.0 15.0 15.0 15.0 15.0 15.0 15.0 15.0 15.0 15.0 15.0 15.0 15.0
14.3 14.9 15.0 15.0 15.0 12.5 9.2 9.2 9.6 15.0 15.0 8.7 12.5 15.0 15.0 15.0 15.0 15.0 15.0 15.0 15.0 15.0 15.0 15.0 15.0 15.0 15.0 15.0 15.0 15.0 15.0 15.0 15.0 15.0 15.0 15.0 15.0 15.0 15.0 15.0 15.0 15.0 15.0 15.0 15.0
15.0 15.0 15.0 15.0 15.0 15.0 7.7 6.7 12.5 9.6 11.4 14.2 14.7 5.9 15.0 15.0 15.0 15.0 15.0 15.0 15.0 15.0 15.0 15.0 15.0 15.0 15.0 15.0 15.0 15.0 15.0 15.0 15.0 15.0 15.0 15.0 15.0 15.0 15.0 15.0 15.0 15.0 15.0 15.0 15.0
15.0 15.0 15.0 15.0 15.0 15.0 7.3 0.9 0.1 0.1 8.7 0.1 15.0 14.9 15.0 15.0 15.0 15.0 15.0 15.0 15.0 15.0 15.0 15.0 15.0 13.5 15.0 15.0 15.0 15.0 15.0 15.0 15.0 15.0 15.0 15.0 15.0 15.0 15.0 15.0 15.0 15.0 15.0 15.0 15.0
15.0 14.6 15.0 13.3 13.4 14.9 9.6 0.7 9.4 15.0 0.0 15.0 15.0 15.0 15.0 15.0 15.0 15.0 15.0 15.0 15.0 13.5 15.0 0.4 10.1 15.0 15.0 15.0 15.0 15.0 15.0 15.0 15.0 15.0 15.0 15.0 15.0 15.0 15.0 15.0 15.0 15.0 15.0 15.0 15.0
11.7 12.4 8.9 12.6 10.0 14.6 14.3 8.5 9.7 5.8 0.5 0.5 15.0 15.0 15.0 15.0 15.0 15.0 15.0 15.0 15.0 15.0 15.0 15.0 15.0 15.0 15.0 15.0 15.0 15.0 15.0 15.0 15.0 15.0 15.0 15.0 15.0 15.0 15.0 15.0 15.0 15.0 15.0 15.0 15.0
15.0 15.0 11.9 7.7 9.5 10.6 14.7 15.0 5.7 2.6 0.0 0.1 0.2 9.1 15.0 15.0 15.0 15.0 15.0 15.0 15.0 15.0 15.0 15.0 15.0 15.0 15.0 15.0 15.0 15.0 15.0 15.0 15.0 15.0 15.0 15.0 15.0 15.0 15.0 15.0 15.0 15.0 15.0 15.0 15.0
13.0 12.0 15.0 15.0 11.9 3.0 15.0 15.0 10.3 2.3 0.0 2.0 0.2 15.0 15.0 15.0 15.0 10.3 15.0 15.0 15.0 15.0 15.0 15.0 15.0 15.0 15.0 15.0 15.0 15.0 15.0 15.0 15.0 15.0 15.0 15.0 15.0 15.0 15.0 15.0 15.0 15.0 15.0 15.0 15.0
8.6 12.0 9.6 14.5 7.7 15.0 8.0 10.3 2.1 0.0 0.1 0.1 4.1 14.2 3.0 15.0 15.0 15.0 15.0 13.2 15.0 15.0 14.1 15.0 15.0 15.0 15.0 15.0 15.0 15.0 15.0 15.0 15.0 15.0 3.0 15.0 15.0 15.0 15.0 15.0 15.0 15.0 15.0 15.0 15.0
14.0 8.1 6.7 5.6 15.0 15.0 11.1 0.2 0.0 0.0 2.5 0.1 0.1 9.5 14.8 13.5 12.8 15.0 5.3 0.0 1.5 0.1 0.3 14.0 15.0 15.0 15.0 12.4 15.0 15.0 15.0 2.2 1.5 0.2 11.6 15.0 15.0 15.0 15.0 15.0 15.0 15.0 15.0 15.0 15.0
8.9 8.5 8.1 8.3 15.0 12.3 6.7 0.0 0.0 5.9 1.1 1.2 15.0 3.6 1.1 13.3 7.6 7.7 15.0 0.1 8.4 15.0 15.0 0.4 0.1 10.8 15.0 15.0 13.2 14.1 15.0 15.0 3.9 0.9 15.0 15.0 15.0 15.0 15.0 15.0 15.0 15.0 15.0 15.0 15.0
7.9 7.6 5.4 14.5 15.0 8.9 0.0 0.0 0.2 4.2 12.2 9.0 12.4 0.2 0.2 1.4 4.0 0.6 3.1 15.0 14.9 15.0 15.0 15.0 14.7 15.0 15.0 15.0 15.0 13.4 5.4 15.0 15.0 15.0 15.0 15.0 15.0 15.0 15.0 15.0 15.0 15.0 15.0 15.0 15.0
5.1 10.5 0.2 14.4 14.7 6.0 0.0 0.1 0.1 10.2 6.1 1.0 12.1 7.9 0.7 0.4 3.0 2.2 0.4 15.0 15.0 15.0 15.0 15.0 15.0 15.0 15.0 15.0 15.0 15.0 15.0 5.1 13.2 5.5 7.8 15.0 15.0 15.0 15.0 15.0 15.0 15.0 15.0 15.0 15.0
8.5 0.0 14.6 15.0 14.0 0.0 0.1 0.1 11.9 3.2 13.4 0.2 3.6 1.2 15.0 10.1 15.0 13.6 10.5 15.0 15.0 15.0 15.0 15.0 15.0 5.5 14.5 8.3 15.0 15.0 15.0 15.0 15.0 15.0 15.0 15.0 15.0 15.0 15.0 15.0 15.0 15.0 15.0 15.0 15.0
6.3 0.0 15.0 15.0 0.0 0.1 0.1 0.8 14.8 0.1 0.9 0.0 0.2 9.4 15.0 15.0 15.0 15.0 14.8 14.6 15.0 15.0 14.5 15.0 15.0 3.5 7.6 15.0 15.0 15.0 15.0 15.0 15.0 15.0 15.0 15.0 15.0 15.0 15.0 15.0 15.0 15.0 15.0 15.0 15.0
0.2 0.2 0.1 7.3 0.1 0.1 1.8 15.0 15.0 15.0 0.5 11.9 0.1 4.4 13.2 15.0 6.7 15.0 15.0 15.0 15.0 15.0 15.0 4.5 0.4 0.1 0.1 11.9 15.0 15.0 15.0 15.0 15.0 15.0 14.8 15.0 15.0 15.0 15.0 15.0 15.0 15.0 15.0 15.0 15.0
0.7 0.0 0.0 0.1 6.1 13.1 12.3 15.0 15.0 15.0 15.0 9.3 2.7 0.5 6.9 9.3 15.0 11.2 15.0 15.0 15.0 15.0 15.0 15.0 6.5 15.0 15.0 15.0 15.0 15.0 15.0 15.0 15.0 0.2 11.2 2.3 15.0 15.0 15.0 15.0 15.0 15.0 15.0 15.0 15.0
0.5 0.1 8.9 0.0 0.3 15.0 15.0 15.0 15.0 15.0 15.0 15.0 0.3 0.2 0.5 0.1 0.7 8.4 15.0 15.0 15.0 15.0 15.0 15.0 12.5 15.0 15.0 15.0 15.0 15.0 15.0 15.0 15.0 14.4 11.1 15.0 15.0 15.0 15.0 15.0 15.0 15.0 15.0 15.0 15.0
0.1 2.7 6.8 3.6 15.0 14.9 15.0 6.3 15.0 15.0 14.6 15.0 15.0 10.2 0.3 4.8 15.0 6.9 15.0 15.0 15.0 14.9 15.0 15.0 10.0 14.6 15.0 15.0 15.0 15.0 15.0 15.0 15.0 15.0 15.0 15.0 15.0 15.0 15.0 15.0 15.0 15.0 15.0 15.0 15.0
1.8 12.6 15.0 14.8 15.0 0.2 0.5 15.0 15.0 15.0 15.0 15.0 15.0 0.9 0.3 3.8 15.0 15.0 15.0 15.0 15.0 15.0 3.9 15.0 4.9 14.6 0.3 3.0 13.1 15.0 15.0 15.0 15.0 15.0 15.0 15.0 15.0 15.0 15.0 15.0 14.8 15.0 15.0 15.0 15.0